Weather History for Dodge City, KS

Change the Weather History Date:

Thursday, October 4, 2012

  Actual Average Record
Temperature  
Mean Temperature 56 °F -  
Max Temperature 64 °F 76 °F 94 °F (1937)
Min Temperature 46 °F 49 °F 26 °F (1877)
Degree Days  
Heating Degree Days 10    
Growing Degree Days 6 (Base 50)    
Moisture  
Dew Point 33 °F    
Average Humidity 47    
Maximum Humidity 63    
Minimum Humidity 21    
Precipitation  
Precipitation 0.00 in - - ()
Sea Level Pressure  
Sea Level Pressure 30.19 in    
Wind  
Wind Speed 16 mph (NNE)    
Max Wind Speed 29 mph    
Max Gust Speed 37 mph    
Visibility 10 miles    
Events      
Averages and records for this station are not official NWS values.
T = Trace of Precipitation, MM = Missing Value Source: NWS Daily Summary

Daily Weather History Graph

Daily Weather History Graph

Search for Another Location

Airport:

Trip Planner

Search our weather history database for the weather conditions in past years. The results will help you decide how hot, cold, wet, or windy it might be!

Date:

Astronomy

Oct. 04, 2012 Rise Set
Actual Time 7:38 AM CDT 7:17 PM CDT
Civil Twilight 7:12 AM CDT 7:43 PM CDT
Nautical Twilight 6:42 AM CDT 8:14 PM CDT
Astronomical Twilight 6:11 AM CDT 8:44 PM CDT
Moon 9:59 PM CDT (10/4) 11:52 AM CDT (10/4)
Length of Visible Light 12h 31m
Length of Day
11h 39m
Waning Gibbous, 82% of the Moon is Illuminated
Oct 4
Waning Gibbous
Oct 8
Last Quarter
Oct 15
New
Oct 21
First Quarter
Oct 29
Full

Hourly Weather History & Observations

Time (CDT) Temp. Windchill Dew Point Humidity Pressure Visibility Wind Dir Wind Speed Gust Speed Precip Events Conditions
12:52 AM 64.9 °F - 50.0 °F 58% 29.97 in 10.0 mi NNW 11.5 mph 25.3 mph N/A   Clear
1:52 AM 57.9 °F - 39.9 °F 51% 30.02 in 10.0 mi North 23.0 mph 34.5 mph N/A   Scattered Clouds
2:52 AM 53.1 °F - 37.0 °F 55% 30.05 in 10.0 mi North 25.3 mph 34.5 mph N/A   Clear
3:52 AM 51.1 °F - 37.0 °F 59% 30.07 in 10.0 mi North 20.7 mph 32.2 mph N/A   Clear
4:52 AM 48.9 °F - 36.0 °F 61% 30.11 in 10.0 mi North 28.8 mph 35.7 mph N/A   Partly Cloudy
5:52 AM 48.9 °F - 35.1 °F 59% 30.15 in 10.0 mi North 26.5 mph 36.8 mph N/A   Overcast
6:52 AM 48.0 °F - 33.1 °F 56% 30.17 in 10.0 mi North 25.3 mph 34.5 mph N/A   Overcast
7:52 AM 46.0 °F 37.8 °F 30.9 °F 56% 30.23 in 10.0 mi North 23.0 mph 32.2 mph N/A   Overcast
8:52 AM 46.0 °F 37.6 °F 30.9 °F 56% 30.26 in 10.0 mi North 24.2 mph 31.1 mph N/A   Partly Cloudy
9:52 AM 48.9 °F - 30.9 °F 50% 30.27 in 10.0 mi North 18.4 mph 32.2 mph N/A   Overcast
10:52 AM 51.1 °F - 30.9 °F 46% 30.28 in 10.0 mi North 18.4 mph 31.1 mph N/A   Clear
1:52 PM 57.9 °F - 30.9 °F 36% 30.26 in 9.0 mi NNE 12.7 mph 23.0 mph N/A   Clear
2:50 PM 57.2 °F - 30.2 °F 36% 30.26 in 4.0 mi NNE 13.8 mph - N/A   Haze
2:52 PM 57.0 °F - 30.9 °F 37% 30.24 in 5.0 mi North 12.7 mph - N/A   Haze
3:52 PM 59.0 °F - 30.0 °F 33% 30.23 in 10.0 mi NNE 11.5 mph 20.7 mph N/A   Clear
4:52 PM 57.0 °F - 28.9 °F 34% 30.22 in 10.0 mi ENE 12.7 mph - N/A   Clear
5:52 PM 57.9 °F - 28.9 °F 33% 30.21 in 10.0 mi NNE 13.8 mph - N/A   Clear
6:52 PM 54.0 °F - 28.9 °F 38% 30.22 in 10.0 mi NE 6.9 mph - N/A   Clear
7:52 PM 46.4 °F 43.5 °F 28.4 °F 50% 30.23 in 10.0 mi NE 5.8 mph - N/A   Clear
8:52 PM 48.9 °F - 32.0 °F 52% 30.25 in 10.0 mi North 4.6 mph - N/A   Overcast
9:52 PM 46.9 °F - 32.0 °F 56% 30.26 in 10.0 mi NNE 5.8 mph - N/A   Overcast
10:52 PM 46.0 °F 43.9 °F 33.1 °F 61% 30.26 in 10.0 mi NNE 4.6 mph - N/A   Mostly Cloudy
11:52 PM 46.0 °F 43.9 °F 34.0 °F 63% 30.27 in 10.0 mi NNE 4.6 mph - N/A   Mostly Cloudy